Omaha, NE (68142)

2:46 PM CST on February 11, 2016 (GMT -0600)
Douglas County | | Change Station
CLOSE
Current Station
Personal Weather Station
Location: Omaha, NE
Elevation: 1132 ft
Nearby Weather Stations

Elev 1132 ft 41.34 °N, 96.11 °W | Updated 2 minutes ago

Snow
Snow
25.8 °F
Feels Like 26 °F
N
0.0
Wind Variable Wind from SE
Gusts 5.0 mph

Today
High -- | Low -- °F
--% Chance of Precip.
Yesterday
High -- | Low -- °F
Precip. -- in
Pressure 30.17 in
Visibility 7.0 miles
Clouds Scattered Clouds 2300 ft
Overcast 4000 ft
Windchill 26 °F
Dew Point 19 °F
Humidity 76%
Rainfall 0.00 in
Snow Depth Not available.
7:24 AM 5:52 PM
Waxing Crescent, 14% visible
METAR KBTA 112035Z AUTO 17009KT 7SM SCT023 OVC040 M05/M08 A3017 RMK AO2 T10521081
Pressure 30.17 in
Visibility 7.0 miles
Clouds Scattered Clouds 2300 ft
Overcast 4000 ft
Windchill 26 °F
Dew Point 19 °F
Humidity 76%
Rainfall 0.00 in
Snow Depth Not available.
7:24 AM 5:52 PM
Waxing Crescent, 14% visible
METAR KBTA 112035Z AUTO 17009KT 7SM SCT023 OVC040 M05/M08 A3017 RMK AO2 T10521081

10-Day Weather Forecast

Almanac

Astronomy

Feb. 11, 2016 Rise Set
Actual Time
Civil Twilight
Nautical Twilight
Astronomical Twilight
Moon
Length of Visible Light
Length of Day
Tomorrow will be .
, % of the Moon is Illuminated

Today's Extremes

State Highs State Lows

Community

WunderPhotos

Upload Photos

1,892,153 photos uploaded!

WunderBlog® & News

Nearby

Air Quality

  Air Quality AQ Index Pollutant
Not available.

Snow Depth

Station Depth Elevation

Earthquake Activity

City Distance Mag. Time & Date
Minimum magnitude displayed is 2.5.

Coastal Water Temperatures

Place Temperature

Stations

Nearby Weather Stations

Station Location Temp. Windchill Dew Point Humidity Wind Precip. Elev Updated Type
                   

Watches & Warnings

There are currently no watches in effect.